Regional Weather Roundup
Issued by NWS

Home | Current Version | Previous Version | Text Only | Print | Product List | Glossary On
Versions: 1 2 3 4 5 6 7 8 9 10 11 12 13 14 15 16 17 18 19 20 21 22 23 24 25 26 27 28 29 30 31 32 33 34 35 36 37 38 39 40 41 42 43 44 45 46 47 48 49 50
000
ASHW40 PHFO 241530
RWRHI

WEATHER ROUNDUP FOR HAWAII
NATIONAL WEATHER SERVICE HONOLULU HI
500 AM HST SUN MAY 24 2015

THIS IS AN AUTOMATED REPORT THAT HAS NOT BEEN QUALITY CONTROLLED.

NOTE..."FAIR" INDICATES FEW OR NO CLOUDS BELOW 12,000 FEET WITH NO
SIGNIFICANT WEATHER AND/OR OBSTRUCTIONS TO VISIBILITY.

* - THESE SITES REPORT LIMITED FIELDS

HIZ001>004-241600-
KAUAI-NIIHAU-

CITY           SKY/WX    TMP DP  RH WIND       PRES   REMARKS
LIHUE APT      CLOUDY    69  57  65 NW6       30.09F
PORT ALLEN*    NOT AVBL
POIPU*           N/A     70 N/A N/A N5G10       N/A
PRINCEVILLE*     N/A     70 N/A N/A MISG        N/A
KOKOLE POINT*  NOT AVBL
MOLOAA DAIRY*  NOT AVBL
WAIMEA HTS*    NOT AVBL
PUU OPAE*      NOT AVBL
PUU LUA*       NOT AVBL
MAKAHA RIDGE*    N/A     63  55  77 NE3G12      N/A
$$

HIZ005>011-241600-
OAHU-

CITY           SKY/WX    TMP DP  RH WIND       PRES   REMARKS
HONOLULU       MOCLDY    73  58  59 NE5       30.06S
KALAELOA       CLOUDY    71  57  61 N3        30.08R
KANEOHE MCB    CLOUDY    72  59  63 N13       30.04S
WHEELER FIELD  FAIR      62  57  84 NW6       30.06S
BELLOWS*         N/A    N/A N/A N/A N12G17      N/A
KAHUKU*          N/A    N/A N/A N/A NE2         N/A
WHEELER*       NOT AVBL
WAIANAE HARBOR NOT AVBL
DILLINGHAM*      N/A     66  57  72 MISG        N/A
KAHUKU TRN*      N/A     66  55  68 NE3G10      N/A
KAWAILOA*        N/A     64  57  77 NE5G10      N/A
KII*             N/A     72  59  64 NE10        N/A
MAKUA RANGE*     N/A     70  57  64 E6G12       N/A
OAHU FOREST NW NOT AVBL
SCHOFIELD BRK*   N/A     61  57  88 MISG        N/A
SCHOFIELD S*   NOT AVBL
WAIANAE VLY*   NOT AVBL
KUAOKALA*      NOT AVBL
HONOULIUULI*   NOT AVBL
MOKUOLOE IS*   NOT AVBL
PALEHUA*       NOT AVBL
WAIAWA PHB*    NOT AVBL
$$

HIZ012>013-241600-
MOLOKAI-

CITY           SKY/WX    TMP DP  RH WIND       PRES   REMARKS
MOLOKAI AIRPT  PTCLDY    69  58  67 N9        30.06S
KALAUPAPA      NOT AVBL
MAKAPULAPAI*   NOT AVBL
MOLOKAI 1*     NOT AVBL
PUU ALII*        N/A     53  53 100 CALM        N/A
$$

HIZ016-241600-
KAHOOLAWE-

CITY           SKY/WX    TMP DP  RH WIND       PRES   REMARKS
KAHOOLAWE*     NOT AVBL
HAKIOAWA*        N/A     65  61  86 MISG      30.47R
HONOKANAIA*      N/A     70  59  68 VRB12G23  30.05
KANELOA*         N/A     66  59  77 N14G24    30.09S
KEALIALALO*      N/A     66  61  82 NE9G18    30.05R
LUA MAKIKA*    NOT AVBL
$$

HIZ014>015-241600-
LANAI-

CITY           SKY/WX    TMP DP  RH WIND       PRES   REMARKS
LANAI CITY     MOCLDY    64  59  83 NE16      30.08S
LANAI 1*       NOT AVBL
$$

HIZ017>028-241600-
MAUI-

CITY           SKY/WX    TMP DP  RH WIND       PRES   REMARKS
KAHULUI        CLOUDY    68  63  84 E5        30.06S
KAPALUA-W MAUI NOT AVBL
HANA AIRPORT   LGT RAIN  68  63  83 SW3       30.09R
HANA*            N/A     68 N/A N/A SW5         N/A
HALEAKALA SUMM   N/A     45   9  23 NW10G24     N/A
MAALAEA BAY*   NOT AVBL
HALEAKALA*     NOT AVBL
KAUPO GAP*     NOT AVBL
KULA 1*          N/A     48   0  13 SE3         N/A
$$

HIZ023>026-241600-
BIG ISLAND OF HAWAII COAST AND LOWER SLOPES-

CITY           SKY/WX    TMP DP  RH WIND       PRES   REMARKS
KAILUA KONA    PTCLDY    74  64  71 CALM      30.00S
HILO           CLOUDY    70  63  78 NW7       30.04S
HONOKAA*       NOT AVBL
KAWAIHAE MWT*    N/A     72 N/A N/A E6          N/A
KAWAIHAE*        N/A     72 N/A N/A NE3         N/A
SOUTH POINT*     N/A     68 N/A N/A NE1         N/A
UPOLU AIRPORT*   N/A    N/A N/A N/A E9          N/A
KAMUELA*       CLOUDY    59  59 100 NE10      30.12R
HAKALAU*         N/A     39  37  93 W3          N/A
KALOKO-HONOKO*   N/A     72  63  73 NE5       29.99S
PALI 2*          N/A     61  59  94 N5          N/A
KEALAKOMO*       N/A     72  59  64 N15G24      N/A
KAUPULEHU*     NOT AVBL
KAPAPALA*        N/A     62  61  97 N3          N/A
LOWER KAHUKU*    N/A     57  57 100 N2          N/A
PUHE CS*         N/A     70  57  64 E5          N/A
PUHO CS*         N/A     69  60  72 E3          N/A
PTA KEAMUKU*     N/A     55  52  88 CALM        N/A
WAIKOLOA*      NOT AVBL
$$

HIZ027>028-241600-
BIG ISLAND OF HAWAII INTERIOR AND SUMMMITS-

CITY           SKY/WX    TMP DP  RH WIND       PRES   REMARKS
BRADSHAW FIELD CLOUDY    47  40  77 N3        30.30S
MK VISITOR CEN NOT AVBL
MAUNA KEA*       N/A     37   9  30 NW18        N/A  WCI  27
MAUNA LOA*       N/A     41  14  33 MISG        N/A
MAUNA LOA 1*   NOT AVBL
PTA KIPUKA*      N/A     48  45  87 SE3         N/A
PTA RANGE 17*    N/A     50  46  87 E2          N/A
PTA WEST*        N/A     70  66  88 SE12        N/A
NENE CABIN*      N/A    N/A N/A N/A W5G10       N/A
AHUMOA*        NOT AVBL
PTA PORTABLE*  NOT AVBL
PUU MALI*        N/A     46  39  76 SW7G14      N/A
$$

HIC003-241600-
NORTHWEST ISLANDS-

CITY           SKY/WX    TMP DP  RH WIND       PRES   REMARKS
MIDWAY ISLAND  CLEAR    N/A N/A N/A E9        30.28S
MIDWAY NOS*    NOT AVBL
FRENCH FRIGATE NOT AVBL
$$

PHZ110>124-180-241600-
BUOY REPORTS

STATION/POSITION TIME  TEMP    WIND        PRES    WAVE   SWELL
                       AIR SEA DIR/SP/G            HT/PER HT/DIR
                 (UTC) (F)     (DEG/KT/KT) (MB)    (FT/S) (FT/D)
BUOY 51001       NOT AVBL
BUOY 51101       1500   71 76   50/ 16/ 19 1020.3F   7/10   5
BUOY 51100       NOT AVBL
BUOY 51002       1500   76 79   50/ 12/ 14 1015.5F   7/19   7/140
BUOY 51003       1500   76 79   50/ 14/ 17 1017.0S   7/ 8   7
BUOY 51004       1403   76 79   40/  4/  6 1015.6    4/16   5/200
BARBERS PT BUOY  NOT AVBL
WAIMEA BAY BUOY  1500      77                N/A     7/10   2/350
KAILUA BAY BUOY  1500      77                N/A     6/11   3/ 20
LANAI BUOY       NOT AVBL
BARBERS PT 2     1500      77                N/A     4/13   3/210
PAUWELA MAUI     1500      77                N/A     6/11   3/360
HILO             1500      77                N/A     6/10   3/ 10
KANEOHE BAY BUOY 1500      77                N/A     6/10   2/ 10
HANALEI KAUAI    1500      78                N/A     6/11   3/360
KAHULUI HARBOR   1500   73 78   30/ 10/ 12 1017.6R
HONOLULU HARBOR  1500   72 77   30/  3/  7 1018.0R
KILO NALU        NOT AVBL
HILO HARBOR      1500   71 76  300/  9/ 10 1016.8S
MOKUOLOE         1500   73 77   40/  9/ 12 1018.0R
NAWILIWILI       1500   68 78  260/  6/  7 1018.7R
WHOTS BUOY       NOT AVBL
BUOY 51028       NOT AVBL
$$

......................KEY........................................
  SKY/WX - SKY CONDITIONS/PRESENT WEATHER
  TMP    - TEMPERATURE IN FAHRENHEIT
  DWPT   - DEWPOINT IN FAHRENHEIT
  RH     - RELATIVE HUMIDITY IN PERCENT
  WIND   - DIRECTION AND SPEED /MPH FOR ISLANDS...KTS FOR BUOYS/
  PRES   - MEAN SEA LEVEL PRESSURE IN INCHES OF HG
  VSB    - VISIBILITY IN MILES
  HX     - HEAT INDEX
  WCI    - WIND CHILL INDEX
  VRB    - VARIABLE WIND DIRECTION
  N/A    - NOT AVAILABLE


USA.gov is the U.S. government's official web portal to all federal, state and local government web resources and services.